Flag for Switzerland Weather past 2 weeks in Cham, Zug, Switzerland

Now
57 °F

Cool.


Feels Like: 57 °F
Forecast: 52 / 77 °F
Wind: 2 mph from Northeast

Location: Zurich Town / Ville.

Current Time: Aug 28, 2014 at 1:33:43 AM

Latest Report: Aug 28, 2014 at 12:00 AM


Visibility: N/A

Pressure: 30.06 "Hg

Humidity: 91%

Dew point: 54 °F

Location of ChamLocation

Historic Weather in Cham — Graph

°F

Cham temperature yesterday

Maximum temperature yesterday: 68 °F (at 4:00 PM)
Minimum temperature yesterday: 57 °F (at 2:00 AM)
Average temperature yesterday: 61 °F

Past Weeks' High & Low Weather Summary

 TemperatureHumidityPressure
High71 °F (Aug 18, 2:00 PM)98% (Aug 19, 8:00 AM)30.22 "Hg (Aug 19, 8:00 AM)
Low49 °F (Aug 17, 7:00 AM)42% (Aug 21, 4:00 PM)29.68 "Hg (Aug 13, 10:00 AM)
Average58 °F76%29.99 "Hg
* Reported Midnight between Aug 12 and Aug 13 — Midnight between Aug 27 and Aug 28, Cham, Weather by CustomWeather, © 2014

Note: Actual official high and low records may vary slightly from our data, if they occured in-between our weather recording intervals... More about our weather records

Advertising

Cham weather history for previous 24 hours

 ConditionsComfort  
Time TempWeatherWind HumidityBarometerVisibility
12:00 AM
Aug 28
57 °FCool.2 mph91%30.06 "HgN/A
11:00 PM
Aug 27
58 °FCool.7 mph89%30.06 "HgN/A
10:00 PM58 °FCool.6 mph89%30.05 "HgN/A
9:00 PM60 °FCool.6 mph86%30.04 "HgN/A
7:00 PM64 °FMild.5 mph73%30.01 "HgN/A
6:00 PM66 °FMild.3 mph58%30.00 "HgN/A
5:00 PM67 °FMild.2 mph63%29.99 "HgN/A
4:00 PM68 °FMild.5 mph62%29.98 "HgN/A
3:00 PM64 °FMild.3 mph71%30.00 "HgN/A
2:00 PM65 °FOvercast.7 mph72%29.98 "HgN/A
1:00 PM65 °FMild.9 mph64%29.99 "HgN/A
12:00 PM63 °FMild.6 mph76%29.99 "HgN/A
11:00 AM63 °FMild.8 mph79%29.98 "HgN/A
10:00 AM60 °FCool.7 mph88%29.98 "HgN/A
9:00 AM59 °FCool.6 mph94%29.97 "HgN/A
8:00 AM58 °FPassing clouds.6 mph96%29.95 "HgN/A
7:00 AM57 °FCool.6 mph95%29.93 "HgN/A
6:00 AM58 °FCool.5 mph92%29.92 "HgN/A
5:00 AM58 °FCool.6 mph94%29.90 "HgN/A
4:00 AM58 °FCool.5 mph94%29.90 "HgN/A
3:00 AM57 °FCool.5 mph96%29.90 "HgN/A
2:00 AM57 °FCool.6 mph96%29.88 "HgN/A
1:00 AM57 °FCool.6 mph95%29.88 "HgN/A
Weather by CustomWeather, © 2014

See weather overviewHow to use our weather pages